Weather History for Baton Rouge, LA

Change the Weather History Date:

Wednesday, May 7, 2014

  Actual Average Record
Temperature  
Mean Temperature 77 °F 74 °F  
Max Temperature 88 °F 84 °F 96 °F (1922)
Min Temperature 65 °F 63 °F 45 °F (1992)
Degree Days  
Heating Degree Days 0 0  
Month to date heating degree days 3 0  
Since 1 July heating degree days 1981 1553  
Cooling Degree Days 12 9  
Month to date cooling degree days 44 56  
Year to date cooling degree days 257 287  
Growing Degree Days 26 (Base 50)    
Moisture  
Dew Point 63 °F    
Average Humidity 64    
Maximum Humidity 87    
Minimum Humidity 40    
Precipitation  
Precipitation 0.00 in 0.16 in 4.85 in (1972)
Month to date precipitation T 1.04  
Year to date precipitation 16.02 20.67  
Snow  
Snow 0.00 in - - ()
Month to date snowfall 0.0  
Since 1 July snowfall 0.4  
Snow Depth 0.00 in    
Sea Level Pressure  
Sea Level Pressure 30.00 in    
Wind  
Wind Speed 11 mph (SE)    
Max Wind Speed 22 mph    
Max Gust Speed 26 mph    
Visibility 10 miles    
Events      
T = Trace of Precipitation, MM = Missing Value Source: NWS Daily Summary

Daily Weather History Graph

Daily Weather History Graph

Search for Another Location

Airport:

Trip Planner

Search our weather history database for the weather conditions in past years. The results will help you decide how hot, cold, wet, or windy it might be!

Date:

Astronomy

May. 07, 2014 Rise Set
Actual Time 6:15 AM CDT 7:46 PM CDT
Civil Twilight 5:49 AM CDT 8:12 PM CDT
Nautical Twilight 5:19 AM CDT 8:43 PM CDT
Astronomical Twilight 4:46 AM CDT 9:16 PM CDT
Moon 1:20 PM CDT (5/7) 1:45 AM CDT (5/7)
Length of Visible Light 14h 22m
Length of Day
13h 31m
First Quarter, 55% of the Moon is Illuminated
May 7
First Quarter
May 14
Full
May 21
Last Quarter
May 28
New
Jun 5
First Quarter

Hourly Weather History & Observations

Time (CDT) Temp. Heat Index Dew Point Humidity Pressure Visibility Wind Dir Wind Speed Gust Speed Precip Events Conditions
12:53 AM 66.9 °F - 59.0 °F 76% 29.96 in 10.0 mi SE 5.8 mph - N/A   Clear
1:53 AM 66.9 °F - 61.0 °F 81% 29.94 in 10.0 mi ESE 5.8 mph - N/A   Clear
2:53 AM 66.0 °F - 61.0 °F 84% 29.94 in 10.0 mi ESE 3.5 mph - N/A   Mostly Cloudy
3:53 AM 66.2 °F - 62.6 °F 88% 29.96 in 10.0 mi Calm Calm - N/A   Overcast
4:53 AM 69.1 °F - 64.0 °F 84% 29.96 in 10.0 mi East 3.5 mph - N/A   Overcast
5:53 AM 66.0 °F - 62.1 °F 87% 29.96 in 10.0 mi East 5.8 mph - N/A   Clear
6:53 AM 66.2 °F - 62.6 °F 88% 29.99 in 8.0 mi East 4.6 mph - N/A   Clear
7:53 AM 72.0 °F - 64.9 °F 78% 30.01 in 10.0 mi ESE 6.9 mph - N/A   Clear
8:53 AM 78.1 °F - 64.0 °F 62% 30.03 in 10.0 mi SSE 10.4 mph - N/A   Scattered Clouds
9:53 AM 81.0 °F 81.9 °F 62.1 °F 52% 30.04 in 10.0 mi South 16.1 mph 21.9 mph N/A   Scattered Clouds
10:53 AM 81.0 °F 82.2 °F 63.0 °F 54% 30.04 in 10.0 mi South 12.7 mph - N/A   Mostly Cloudy
11:53 AM 82.9 °F 84.0 °F 63.0 °F 51% 30.04 in 10.0 mi South 17.3 mph - N/A   Mostly Cloudy
12:53 PM 86.0 °F 86.8 °F 63.0 °F 46% 30.03 in 10.0 mi South 15.0 mph 25.3 mph N/A   Mostly Cloudy
1:53 PM 87.1 °F 87.0 °F 61.0 °F 41% 30.03 in 10.0 mi South 16.1 mph 24.2 mph N/A   Mostly Cloudy
2:53 PM 86.0 °F 86.1 °F 61.0 °F 43% 30.01 in 10.0 mi South 16.1 mph 21.9 mph N/A   Scattered Clouds
3:53 PM 86.0 °F 85.7 °F 60.1 °F 41% 29.99 in 10.0 mi South 13.8 mph - N/A   Partly Cloudy
4:53 PM 87.1 °F 87.8 °F 63.0 °F 44% 29.99 in 10.0 mi South 17.3 mph - N/A   Mostly Cloudy
5:53 PM 84.0 °F 84.9 °F 63.0 °F 49% 29.99 in 10.0 mi South 13.8 mph - N/A   Partly Cloudy
6:53 PM 82.9 °F 84.0 °F 63.0 °F 51% 29.98 in 10.0 mi SSE 18.4 mph 24.2 mph N/A   Scattered Clouds
7:53 PM 80.1 °F 81.5 °F 63.0 °F 56% 29.99 in 10.0 mi SSE 12.7 mph - N/A   Clear
8:53 PM 78.1 °F - 63.0 °F 60% 29.99 in 10.0 mi SE 10.4 mph - N/A   Partly Cloudy
9:53 PM 75.9 °F - 64.0 °F 67% 30.00 in 10.0 mi ESE 9.2 mph - N/A   Clear
10:53 PM 75.0 °F - 64.9 °F 71% 30.01 in 10.0 mi SE 9.2 mph - N/A   Clear
11:53 PM 73.9 °F - 66.9 °F 79% 30.01 in 10.0 mi SE 9.2 mph 18.4 mph N/A   Clear